TimeCST,TemperatureF,Dew PointF,Humidity,Sea Level PressureIn,VisibilityMPH,Wind Direction,Wind SpeedMPH,Gust SpeedMPH,PrecipitationIn,Events,Conditions,WindDirDegrees,DateUTC
12:51 AM,35.6,23.0,60,30.15,10.0,WSW,5.8,-,N/A,,Overcast,250,2013-01-17 06:51:00
1:51 AM,36.0,23.0,59,30.18,10.0,SW,3.5,-,N/A,,Overcast,230,2013-01-17 07:51:00
2:51 AM,35.6,23.0,60,30.18,10.0,West,4.6,-,N/A,,Mostly Cloudy,270,2013-01-17 08:51:00
3:51 AM,30.9,23.0,72,30.21,10.0,Calm,Calm,-,N/A,,Mostly Cloudy,0,2013-01-17 09:51:00
4:51 AM,30.9,23.0,72,30.23,10.0,West,5.8,-,N/A,,Scattered Clouds,280,2013-01-17 10:51:00
5:51 AM,30.0,23.0,75,30.26,10.0,NW,6.9,-,N/A,,Partly Cloudy,310,2013-01-17 11:51:00
6:51 AM,30.9,25.0,79,30.28,10.0,NNW,5.8,-,N/A,,Partly Cloudy,330,2013-01-17 12:51:00
7:51 AM,34.0,28.0,79,30.32,9.0,North,13.8,-,N/A,,Scattered Clouds,360,2013-01-17 13:51:00
8:36 AM,35.6,28.4,75,30.33,9.0,North,12.7,-,N/A,,Mostly Cloudy,350,2013-01-17 14:36:00
8:51 AM,34.0,28.0,79,30.38,9.0,North,16.1,20.7,N/A,,Mostly Cloudy,350,2013-01-17 14:51:00
9:02 AM,35.6,28.4,75,30.34,9.0,North,12.7,-,N/A,,Overcast,360,2013-01-17 15:02:00
9:51 AM,35.1,27.0,72,30.40,10.0,North,13.8,20.7,N/A,,Mostly Cloudy,10,2013-01-17 15:51:00
10:00 AM,35.6,28.4,75,30.36,10.0,North,15.0,20.7,N/A,,Mostly Cloudy,360,2013-01-17 16:00:00
10:37 AM,37.4,26.6,65,30.37,10.0,North,13.8,20.7,N/A,,Scattered Clouds,10,2013-01-17 16:37:00
10:51 AM,37.9,27.0,65,30.40,10.0,North,12.7,20.7,N/A,,Scattered Clouds,350,2013-01-17 16:51:00
10:57 AM,37.4,26.6,65,30.37,10.0,NNW,11.5,-,N/A,,Mostly Cloudy,330,2013-01-17 16:57:00
11:30 AM,37.4,26.6,65,30.37,10.0,NNW,12.7,-,N/A,,Scattered Clouds,340,2013-01-17 17:30:00
11:51 AM,39.0,26.1,60,30.39,10.0,NNW,15.0,19.6,N/A,,Partly Cloudy,340,2013-01-17 17:51:00
12:51 PM,39.9,24.1,53,30.38,10.0,NNW,13.8,19.6,N/A,,Partly Cloudy,330,2013-01-17 18:51:00
1:51 PM,41.0,21.9,47,30.37,10.0,NW,11.5,-,N/A,,Clear,310,2013-01-17 19:51:00
2:51 PM,41.0,21.0,45,30.39,10.0,NW,12.7,-,N/A,,Clear,320,2013-01-17 20:51:00
3:51 PM,39.0,19.9,46,30.42,10.0,NNW,13.8,-,N/A,,Partly Cloudy,330,2013-01-17 21:51:00
4:51 PM,37.0,19.9,50,30.44,10.0,NW,11.5,-,N/A,,Clear,320,2013-01-17 22:51:00
5:51 PM,34.0,19.9,56,30.48,10.0,NW,8.1,-,N/A,,Clear,320,2013-01-17 23:51:00
6:51 PM,33.8,19.4,56,30.46,10.0,Calm,Calm,-,N/A,,Clear,0,2013-01-18 00:51:00
7:51 PM,30.9,19.0,61,30.50,10.0,WNW,3.5,-,N/A,,Clear,300,2013-01-18 01:51:00
8:51 PM,30.9,19.0,61,30.51,10.0,NW,3.5,-,N/A,,Clear,310,2013-01-18 02:51:00
9:51 PM,28.0,19.0,69,30.53,10.0,Calm,Calm,-,N/A,,Clear,0,2013-01-18 03:51:00
10:51 PM,27.0,19.0,72,30.52,10.0,Calm,Calm,-,N/A,,Clear,0,2013-01-18 04:51:00
11:51 PM,27.0,19.0,72,30.52,10.0,WSW,3.5,-,N/A,,Clear,240,2013-01-18 05:51:00